Location: Umburanas
(4.5000°S, 37.9667°W)
Time: 22:47:45
(UTC+00:00)

CZ-4 R/B - Pass Details

Date: 19 November 2019
Orbit: 529 x 601 km, 97.8° (Epoch: 06 December)

Event Time Altitude Azimuth Distance (km) Brightness Sun altitude
Rises 21:29:25 0° 174° (S) 2,852 5.2 -15.3°
Reaches altitude 10° 21:31:37 10° 177° (S) 1,946 4.3 -15.8°
Maximum altitude 21:35:48 63° 258° (WSW) 670 2.0 -16.8°
Drops below altitude 10° 21:39:56 10° 339° (NNW) 1,917 4.1 -17.8°
Sets 21:42:05 0° 343° (NNW) 2,806 4.9 -18.3°
